User: anonymous   Login
Location: Peebles
(55.6412°N, 3.1714°W)
Time: 20:31:26
(UTC+01:00)
Language:

Transit 2A - Orbit

View from above orbital plane
View from above orbital plane
View from above satellite
View from above satellite

Ground track
Ground track

The orbit data is extracted from the following two-line orbital elements,

1    45U 60007A   22275.52876460  .00000143  00000-0  63186-4 0  9994
2    45  66.6959 334.7394 0247943  65.6044 297.0714 14.33910114242701
Epoch (UTC): 02 October 2022 12:41:25
Eccentricity: 0.0247943
inclination: 66.6959°
perigee height: 601 km
apogee height: 956 km
right ascension of ascending node: 334.7394°
argument of perigee: 65.6044°
revolutions per day: 14.33910114
mean anomaly at epoch: 297.0714°
orbit number at epoch: 24270

The dashed part of the orbit path shows where the satellite is in the earth's shadow,  

DLR